Home > Weather > Ghazni > Past weeks

Flag for Afghanistan Past Weather in Ghazni, Afghanistan — Yesterday and Last 2 Weeks

Now
73 °F

Haze.


Feels Like: 77 °F
Forecast: 47 / 77 °F
Wind: 5 mph from Northwest

Location: Peshawar Airport

Current Time: May 25, 2016 at 6:01:48 AM

Latest Report: May 25, 2016 at 5:30 AM


Visibility: 2 mi

Pressure: 29.62 "Hg (23.02 "Hg at 2184m altitude)

Humidity: 57%

Dew Point: 57 °F

Location of GhazniLocation

Past Weather in Ghazni — Graph

°F

Ghazni Temperature Yesterday

Maximum temperature yesterday: 97 °F (at 3:30 PM)
Minimum temperature yesterday: 75 °F (at 4:30 AM)
Average temperature yesterday: 86 °F

High & Low Weather Summary for the Past Weeks

 TemperatureHumidityPressure
High111 °F (May 19, 3:30 PM)100% (May 11, 11:30 AM)29.92 "Hg (May 11, 11:30 AM)
Low55 °F (May 11, 11:30 AM)18% (May 19, 3:30 PM)29.53 "Hg (May 16, 4:30 PM)
Average90 °F39%29.65 "Hg
* Reported May 10 3:30 AM — May 25 4:29 AM, Ghazni, Weather by CustomWeather, © 2016

Note: Actual official high and low records may vary slightly from our data, if they occured in-between our weather recording intervals... More about our weather records

Advertising

Ghazni Weather History for the Previous 24 Hours

Scroll right to see more
 ConditionsComfort  
Time TempWeatherWind HumidityBarometerVisibility
4:29 AM
Wed, May 25
72 °FHaze.7 mph57%29.59 "Hg2 mi
3:30 AM73 °FHaze.7 mph57%29.62 "Hg2 mi
2:30 AM75 °FHaze.7 mph54%29.59 "Hg2 mi
2:00 AM77 °FHaze.9 mph51%29.62 "Hg2 mi
1:30 AM77 °FHaze.9 mph51%29.62 "Hg2 mi
1:00 AM81 °FHaze.16 mph48%29.62 "Hg2 mi
12:30 AM81 °FHaze.16 mph48%29.62 "Hg2 mi
12:00 AM81 °FHaze.18 mph48%29.62 "Hg2 mi
11:30 PM
Tue, May 24
81 °FHaze.18 mph48%29.62 "Hg2 mi
10:30 PM82 °FHaze.16 mph45%29.62 "Hg2 mi
10:00 PM84 °FPassing clouds.14 mph45%29.62 "Hg2 mi
9:30 PM84 °FPassing clouds.14 mph45%29.62 "Hg2 mi
8:30 PM86 °FPassing clouds.14 mph43%29.59 "Hg2 mi
8:00 PM86 °FThundershowers. Passing clouds.14 mph43%29.56 "Hg2 mi
7:30 PM86 °FHaze.14 mph43%29.56 "Hg2 mi
7:00 PM90 °FHaze.16 mph41%29.53 "Hg2 mi
6:30 PM90 °FHaze.21 mph41%29.53 "Hg2 mi
6:00 PM93 °FHaze.28 mph36%29.53 "Hg3 mi
5:30 PM93 °FHaze.28 mph36%29.53 "Hg3 mi
5:00 PM95 °FHaze.14 mph34%N/A3 mi
4:30 PM95 °FHaze.14 mph34%N/A3 mi
3:30 PM97 °FHaze.14 mph34%N/A3 mi
2:30 PM95 °FScattered clouds.14 mph34%29.53 "Hg3 mi
1:30 PM95 °FScattered clouds.12 mph34%29.59 "Hg3 mi
1:00 PM91 °FHaze.12 mph38%29.59 "Hg3 mi
12:30 PM91 °FHaze.12 mph38%29.59 "Hg3 mi
12:00 PM91 °FScattered clouds.12 mph36%29.62 "Hg3 mi
11:30 AM91 °FScattered clouds.12 mph36%29.62 "Hg3 mi
11:00 AM88 °FScattered clouds.7 mph40%29.62 "Hg3 mi
10:30 AM88 °FHaze.9 mph35%29.62 "Hg3 mi
10:00 AM86 °FHaze.5 mph35%29.62 "Hg3 mi
9:30 AM86 °FHaze.5 mph35%29.62 "Hg3 mi
9:00 AM84 °FHaze.7 mph37%29.65 "Hg3 mi
8:30 AM84 °FHaze.7 mph37%29.65 "Hg3 mi
8:00 AM82 °FHaze.7 mph40%29.62 "Hg3 mi
7:30 AM82 °FHaze.7 mph40%29.62 "Hg3 mi
6:30 AM81 °FHaze.7 mph42%29.62 "Hg3 mi
6:00 AM77 °FHaze.7 mph44%29.59 "Hg2 mi
Weather by CustomWeather, © 2016

See weather overviewHow to use our weather pages